Regional Weather Roundup
Issued by NWS

Home | Current Version | Previous Version | Text Only | Print | Product List | Glossary On
Versions: 1 2 3 4 5 6 7 8 9 10 11 12 13 14 15 16 17 18 19 20 21 22 23 24 25 26 27 28 29 30 31 32 33 34 35 36 37 38 39 40 41 42 43 44 45 46 47 48 49 50
536
ASUS44 KLIX 180111
RWRLA
LOUISIANA WEATHER ROUNDUP
NATIONAL WEATHER SERVICE NEW ORLEANS LA
800 PM CDT FRI APR 17 2015

NOTE: "FAIR" INDICATES FEW OR NO CLOUDS BELOW 12,000 FEET WITH NO
      SIGNIFICANT WEATHER AND/OR OBSTRUCTIONS TO VISIBILITY.
      SKY/WX - SKY CONDITION AND SIGNIFICANT WEATHER.
      TMP - AIR TEMPERATURE.    DP   - DEWPOINT TEMPERATURE.
      RH  - RELATIVE HUMIDITY.  PRES - PRESSURE.
      HX  - HEAT INDEX.         WCI  - WIND CHILL INDEX.

*  THESE STATIONS ARE NOT NWS OR FAA STATIONS AND ARE NOT UNDER
   NWS QUALITY CONTROL.

LAZ040-048-061>063-065-066-069-180200-
SOUTHEAST LOUISIANA

CITY           SKY/WX    TMP DP  RH WIND       PRES   REMARKS
N.O. AUDUBON     N/A     76  73  90 MISG        N/A
N.O. INTL ARPT CLOUDY    77  69  76 SW7       29.92R
N.O. LAKEFRONT CLOUDY    80  71  74 SW6       29.93R
SLIDELL        MOCLDY    76  72  87 CALM      29.91S
BATON ROUGE    CLOUDY    75  69  81 CALM      29.92S
BOOTHVILLE     MOCLDY    75  71  87 SW5       29.94R
BELLE CHASSE   CLOUDY    73  69  87 SW3       29.92R
BOGALUSA*        N/A     78  69  74 CALM      29.92S
GALLIANO*      CLOUDY    76  73  88 CALM      29.94R
NEW ROADS*     FAIR      76  70  81 CALM      29.92S
GONZALES*      FAIR      76  72  88 CALM      29.92S
HAMMOND*       MOCLDY    75  70  83 CALM      29.94R
HOUMA*         CLOUDY    76  71  86 CALM      29.93R
PORT FOURCHON* CLOUDY    77  70  78 SE5       29.97R

$$

LAZ041-044-053-054-180200-
SOUTHWEST LOUISIANA

CITY           SKY/WX    TMP DP  RH WIND       PRES   REMARKS
LAKE CHARLES   CLOUDY    77  70  79 E6        29.89S
LAFAYETTE      CLOUDY    77  71  82 CALM      29.91S
PATTERSON      CLOUDY    73  72  94 CALM      29.94S
SALT POINT       N/A     74  71  91 CALM      29.90F
NEW IBERIA     CLOUDY    77  71  82 S5        29.92S
CHENAULT AIRPK NOT AVBL

$$

LAZ027-028-180200-
CENTRAL LOUISIANA

CITY           SKY/WX    TMP DP  RH WIND       PRES   REMARKS
FORT POLK      CLOUDY    73  68  83 NE5       29.92R
ALEXANDRIA INT CLOUDY    74  67  78 S3        29.91R
ALEXANDRIA     CLOUDY    71  68  90 CALM      29.92R

$$

LAZ001-002-180200-
NORTHWEST LOUISIANA

CITY           SKY/WX    TMP DP  RH WIND       PRES   REMARKS
SHREVEPORT     CLOUDY    73  65  75 CALM      29.92R
BARKSDALE AFB  CLOUDY    72  65  79 E3        29.92R
DTN SHREVEPORT CLOUDY    73  63  70 SE3       29.93R

$$

LAZ014-016-180200-
NORTHEAST LOUISIANA

CITY           SKY/WX    TMP DP  RH WIND       PRES   REMARKS
MONROE         CLOUDY    72  64  76 NE5       29.92F
TALLULAH       MOCLDY    68  64  87 CALM      29.93R

$$




USA.gov is the U.S. government's official web portal to all federal, state and local government web resources and services.